FIN572 EVRA-EFHK

Flight info

Callsign FIN572
Flight time 0h 51m
Altitude 27000
Route SOKVA DCT KEMET Q11 INTOR
Aircraft E190/M-SDE3GILORVW/S

Departure

Time 2026-05-05 11:32
Airport Riga International Airport (EVRA)

Arrival

Time 2026-05-05 12:23
Airport Helsinki Vantaa Airport (EFHK)
Time Latitude Longitude Altitude Speed Heading
2026-05-05 11:02 56.92698 23.97676 43 ft 0 kts 276°
2026-05-05 11:24 56.92696 23.97705 43 ft 4 kts 283°
2026-05-05 11:25 56.92687 23.97748 43 ft 4 kts 320°
2026-05-05 11:25 56.92671 23.97761 43 ft 0 kts
2026-05-05 11:28 56.92694 23.97765 43 ft 3 kts
2026-05-05 11:29 56.92717 23.97770 43 ft 8 kts
2026-05-05 11:29 56.92792 23.97783 43 ft 2 kts
2026-05-05 11:29 56.92839 23.97791 41 ft 12 kts
2026-05-05 11:29 56.92882 23.97798 43 ft 3 kts
2026-05-05 11:30 56.92931 23.97773 42 ft 11 kts 312°
2026-05-05 11:30 56.92945 23.97653 43 ft 0 kts 275°
2026-05-05 11:30 56.92946 23.97632 43 ft 6 kts 275°
2026-05-05 11:30 56.92952 23.97500 43 ft 15 kts 275°
2026-05-05 11:31 56.92963 23.97257 43 ft 21 kts 267°
2026-05-05 11:31 56.92913 23.97205 43 ft 8 kts 184°
2026-05-05 11:31 56.92750 23.97177 43 ft 65 kts 185°
2026-05-05 11:31 56.91962 23.97039 86 ft 158 kts 188°
2026-05-05 11:32 56.90692 23.96837 846 ft 202 kts 187°
2026-05-05 11:32 56.89210 23.96712 2016 ft 232 kts 187°
2026-05-05 11:32 56.87593 23.96834 2807 ft 229 kts 176°
2026-05-05 11:32 56.85988 23.97359 2948 ft 241 kts 173°
2026-05-05 11:33 56.84360 23.97941 3421 ft 234 kts 173°
2026-05-05 11:33 56.82777 23.98601 3727 ft 240 kts 163°
2026-05-05 11:33 56.81382 24.00485 3725 ft 262 kts 129°
2026-05-05 11:33 56.80722 24.03518 4240 ft 258 kts 99°
2026-05-05 11:34 56.80482 24.06730 4488 ft 259 kts 101°
2026-05-05 11:34 56.80171 24.09968 4779 ft 259 kts 102°
2026-05-05 11:34 56.79880 24.13208 5075 ft 259 kts 98°
2026-05-05 11:34 56.79688 24.16488 5376 ft 260 kts 97°
2026-05-05 11:35 56.79507 24.19790 5613 ft 264 kts 97°
2026-05-05 11:35 56.79331 24.23163 5745 ft 270 kts 97°
2026-05-05 11:35 56.79149 24.26582 6029 ft 271 kts 98°
2026-05-05 11:35 56.79068 24.30004 6319 ft 272 kts 82°
2026-05-05 11:36 56.79765 24.33110 6571 ft 270 kts 50°
2026-05-05 11:36 56.81201 24.35182 6825 ft 260 kts 17°
2026-05-05 11:36 56.82918 24.35956 7119 ft 253 kts
2026-05-05 11:36 56.84648 24.36503 7394 ft 253 kts
2026-05-05 11:37 56.86368 24.37181 7674 ft 253 kts
2026-05-05 11:37 56.88083 24.37885 7942 ft 253 kts
2026-05-05 11:37 56.89800 24.38594 8215 ft 252 kts
2026-05-05 11:37 56.91507 24.39205 8465 ft 247 kts 355°
2026-05-05 11:38 56.93094 24.38598 8864 ft 238 kts 329°
2026-05-05 11:38 56.94612 24.37145 9383 ft 254 kts 321°
2026-05-05 11:38 56.96135 24.35325 9970 ft 267 kts 318°
2026-05-05 11:38 56.97680 24.33328 10515 ft 276 kts 316°
2026-05-05 11:39 56.99170 24.31053 11061 ft 282 kts 312°
2026-05-05 11:39 57.00672 24.28648 11608 ft 290 kts 312°
2026-05-05 11:39 57.02198 24.26171 12157 ft 297 kts 311°
2026-05-05 11:39 57.03754 24.23639 12711 ft 302 kts 311°
2026-05-05 11:40 57.05337 24.21053 13260 ft 307 kts 311°
2026-05-05 11:40 57.06925 24.18466 13806 ft 310 kts 311°
2026-05-05 11:40 57.08531 24.15841 14369 ft 311 kts 311°
2026-05-05 11:40 57.10326 24.13516 14928 ft 325 kts 328°
2026-05-05 11:41 57.12605 24.12688 15489 ft 347 kts 353°
2026-05-05 11:41 57.15018 24.13557 16106 ft 358 kts 10°
2026-05-05 11:41 57.17354 24.15113 16766 ft 359 kts 18°
2026-05-05 11:41 57.19590 24.17153 17439 ft 357 kts 20°
2026-05-05 11:42 57.21787 24.19234 18113 ft 353 kts 20°
2026-05-05 11:42 57.23943 24.21315 18694 ft 348 kts 20°
2026-05-05 11:42 57.26044 24.23354 19354 ft 346 kts 20°
2026-05-05 11:42 57.28225 24.25458 20036 ft 361 kts 20°
2026-05-05 11:43 57.30482 24.27655 20739 ft 373 kts 20°
2026-05-05 11:43 57.32820 24.29933 21467 ft 384 kts 20°
2026-05-05 11:43 57.35281 24.31862 22212 ft 384 kts
2026-05-05 11:43 57.37872 24.33107 22967 ft 387 kts
2026-05-05 11:44 57.40525 24.34059 23688 ft 389 kts 359°
2026-05-05 11:44 57.43208 24.34498 24337 ft 389 kts 354°
2026-05-05 11:44 57.45925 24.34858 25005 ft 392 kts 354°
2026-05-05 11:44 57.48599 24.35163 25659 ft 390 kts 353°
2026-05-05 11:45 57.51301 24.35462 26283 ft 390 kts 353°
2026-05-05 11:45 57.54028 24.35759 26671 ft 397 kts 353°
2026-05-05 11:45 57.56828 24.36065 26791 ft 409 kts 354°
2026-05-05 11:45 57.59701 24.36394 26840 ft 417 kts 354°
2026-05-05 11:46 57.62601 24.36726 26849 ft 417 kts 354°
2026-05-05 11:46 57.65480 24.36882 26867 ft 411 kts 349°
2026-05-05 11:46 57.68287 24.36730 26856 ft 408 kts 347°
2026-05-05 11:46 57.71066 24.36068 26850 ft 400 kts 340°
2026-05-05 11:47 57.73818 24.35238 26855 ft 400 kts 340°
2026-05-05 11:47 57.76556 24.34352 26857 ft 400 kts 340°
2026-05-05 11:47 57.79299 24.33458 26850 ft 400 kts 340°
2026-05-05 11:47 57.82040 24.32559 26846 ft 400 kts 340°
2026-05-05 11:48 57.87556 24.30953 26842 ft 408 kts 348°
2026-05-05 11:48 57.90425 24.31002 26852 ft 414 kts 354°
2026-05-05 11:48 57.93309 24.31339 26859 ft 417 kts 356°
2026-05-05 11:49 57.96166 24.32115 26845 ft 423 kts
2026-05-05 11:49 57.99066 24.33049 26844 ft 423 kts
2026-05-05 11:49 58.01962 24.34038 26849 ft 423 kts
2026-05-05 11:49 58.04859 24.35033 26847 ft 423 kts
2026-05-05 11:50 58.07753 24.36032 26837 ft 423 kts
2026-05-05 11:50 58.10651 24.37034 26837 ft 423 kts
2026-05-05 11:50 58.13548 24.38024 26858 ft 423 kts
2026-05-05 11:50 58.16440 24.39040 26842 ft 423 kts
2026-05-05 11:51 58.19335 24.40043 26830 ft 423 kts
2026-05-05 11:51 58.22189 24.41035 26831 ft 423 kts
2026-05-05 11:51 58.25086 24.42043 26838 ft 423 kts
2026-05-05 11:51 58.27978 24.43050 26833 ft 423 kts
2026-05-05 11:52 58.30873 24.44063 26819 ft 423 kts
2026-05-05 11:52 58.33767 24.45072 26825 ft 423 kts
2026-05-05 11:52 58.36657 24.46086 26809 ft 423 kts
2026-05-05 11:52 58.39553 24.47102 26802 ft 423 kts
2026-05-05 11:53 58.42453 24.48120 26821 ft 424 kts
2026-05-05 11:53 58.45357 24.49144 26805 ft 424 kts
2026-05-05 11:53 58.48214 24.50152 26796 ft 424 kts
2026-05-05 11:53 58.51117 24.51176 26803 ft 424 kts
2026-05-05 11:54 58.54018 24.52204 26808 ft 424 kts
2026-05-05 11:54 58.56916 24.53230 26803 ft 424 kts
2026-05-05 11:54 58.59818 24.54260 26798 ft 424 kts
2026-05-05 11:54 58.62719 24.55293 26799 ft 424 kts
2026-05-05 11:55 58.65630 24.56330 26823 ft 426 kts
2026-05-05 11:55 58.68504 24.57355 26835 ft 426 kts
2026-05-05 11:55 58.71428 24.58404 26811 ft 427 kts
2026-05-05 11:55 58.74348 24.59445 26790 ft 427 kts
2026-05-05 11:56 58.77272 24.60492 26783 ft 427 kts
2026-05-05 11:56 58.80193 24.61542 26795 ft 427 kts
2026-05-05 11:56 58.83117 24.62592 26794 ft 427 kts
2026-05-05 11:56 58.86044 24.63647 26777 ft 427 kts
2026-05-05 11:57 58.88959 24.64697 26787 ft 427 kts
2026-05-05 11:57 58.91890 24.65756 26792 ft 427 kts
2026-05-05 11:57 58.94773 24.66802 26784 ft 428 kts
2026-05-05 11:57 58.97699 24.67862 26812 ft 429 kts
2026-05-05 11:58 59.00635 24.68930 26793 ft 429 kts
2026-05-05 11:58 59.03567 24.69996 26777 ft 429 kts
2026-05-05 11:58 59.06496 24.71063 26783 ft 429 kts
2026-05-05 11:58 59.09434 24.72135 26788 ft 429 kts
2026-05-05 11:59 59.12363 24.73207 26799 ft 429 kts
2026-05-05 11:59 59.15297 24.74281 26792 ft 429 kts
2026-05-05 11:59 59.18195 24.75347 26797 ft 429 kts
2026-05-05 11:59 59.21131 24.76426 26796 ft 429 kts
2026-05-05 12:00 59.24064 24.77505 26795 ft 429 kts
2026-05-05 12:00 59.26998 24.78587 26800 ft 429 kts
2026-05-05 12:00 59.29933 24.79674 26804 ft 429 kts
2026-05-05 12:00 59.32865 24.80759 26804 ft 429 kts
2026-05-05 12:01 59.35799 24.81846 26805 ft 429 kts
2026-05-05 12:01 59.38738 24.83022 26801 ft 432 kts
2026-05-05 12:01 59.41615 24.84460 26796 ft 436 kts
2026-05-05 12:01 59.44470 24.86621 26806 ft 442 kts 16°
2026-05-05 12:02 59.47316 24.88927 26721 ft 443 kts 15°
2026-05-05 12:02 59.50152 24.91284 26292 ft 440 kts 15°
2026-05-05 12:02 59.53001 24.93644 25771 ft 447 kts 15°
2026-05-05 12:02 59.55884 24.96057 25241 ft 449 kts 15°
2026-05-05 12:03 59.58753 24.98449 24702 ft 446 kts 15°
2026-05-05 12:03 59.61591 25.00822 24173 ft 442 kts 15°
2026-05-05 12:03 59.64379 25.03157 23658 ft 439 kts 15°
2026-05-05 12:03 59.67183 25.05507 23100 ft 436 kts 15°
2026-05-05 12:04 59.69958 25.07840 22492 ft 432 kts 15°
2026-05-05 12:04 59.72713 25.10157 21896 ft 428 kts 15°
2026-05-05 12:04 59.75446 25.12464 21285 ft 425 kts 15°
2026-05-05 12:04 59.78154 25.14749 20624 ft 423 kts 15°
2026-05-05 12:05 59.80846 25.17025 20052 ft 419 kts 15°
2026-05-05 12:05 59.83514 25.19292 19430 ft 414 kts 15°
2026-05-05 12:05 59.86148 25.21530 18813 ft 410 kts 15°
2026-05-05 12:05 59.88774 25.23238 18208 ft 394 kts
2026-05-05 12:06 59.91450 25.23915 17560 ft 384 kts 355°
2026-05-05 12:06 59.94097 25.24257 16895 ft 379 kts 353°
2026-05-05 12:06 59.96690 25.24214 16275 ft 367 kts 347°
2026-05-05 12:06 59.99233 25.23913 15627 ft 364 kts 347°
2026-05-05 12:07 60.01742 25.23573 14984 ft 360 kts 346°
2026-05-05 12:07 60.04224 25.23222 14376 ft 356 kts 346°
2026-05-05 12:07 60.06684 25.22866 13765 ft 353 kts 346°
2026-05-05 12:07 60.09094 25.22524 13114 ft 350 kts 346°
2026-05-05 12:08 60.11510 25.22176 12458 ft 346 kts 346°
2026-05-05 12:08 60.13904 25.21835 11804 ft 343 kts 346°
2026-05-05 12:08 60.16269 25.21494 11158 ft 337 kts 346°
2026-05-05 12:08 60.18556 25.21179 10645 ft 322 kts 346°
2026-05-05 12:09 60.20761 25.20853 10033 ft 315 kts 346°
2026-05-05 12:09 60.22876 25.20559 9389 ft 294 kts 346°
2026-05-05 12:09 60.24854 25.20264 8700 ft 277 kts 346°
2026-05-05 12:09 60.26703 25.19989 8103 ft 264 kts 347°
2026-05-05 12:10 60.28493 25.19728 7564 ft 254 kts 348°
2026-05-05 12:10 60.30246 25.20133 7005 ft 257 kts 12°
2026-05-05 12:10 60.31853 25.21664 6498 ft 255 kts 26°
2026-05-05 12:10 60.33307 25.23692 5996 ft 251 kts 35°
2026-05-05 12:11 60.34544 25.26122 5475 ft 245 kts 43°
2026-05-05 12:11 60.35686 25.28614 4958 ft 236 kts 44°
2026-05-05 12:11 60.36757 25.30996 4500 ft 223 kts 44°
2026-05-05 12:11 60.37787 25.33291 4005 ft 220 kts 44°
2026-05-05 12:12 60.38797 25.35557 3521 ft 220 kts 46°
2026-05-05 12:12 60.39531 25.38206 3037 ft 216 kts 65°
2026-05-05 12:12 60.40128 25.41024 2793 ft 212 kts 54°
2026-05-05 12:12 60.41184 25.42800 2666 ft 189 kts 14°
2026-05-05 12:13 60.42403 25.43334 2700 ft 174 kts
2026-05-05 12:13 60.43573 25.43727 2732 ft 169 kts
2026-05-05 12:13 60.44686 25.44079 2720 ft 156 kts
2026-05-05 12:13 60.45738 25.44389 2669 ft 149 kts 353°
2026-05-05 12:14 60.46604 25.43597 2703 ft 136 kts 298°
2026-05-05 12:14 60.46915 25.41870 2767 ft 132 kts 287°
2026-05-05 12:14 60.47224 25.40090 2812 ft 135 kts 287°
2026-05-05 12:14 60.47414 25.38234 2800 ft 135 kts 274°
2026-05-05 12:15 60.47432 25.36305 2795 ft 137 kts 270°
2026-05-05 12:15 60.47408 25.34573 2758 ft 132 kts 268°
2026-05-05 12:15 60.47299 25.32685 2653 ft 138 kts 257°
2026-05-05 12:15 60.46996 25.30841 2497 ft 137 kts 252°
2026-05-05 12:16 60.46645 25.29092 2331 ft 133 kts 251°
2026-05-05 12:16 60.46250 25.27430 2198 ft 133 kts 242°
2026-05-05 12:16 60.45688 25.25951 2037 ft 131 kts 236°
2026-05-05 12:16 60.45083 25.24572 1919 ft 130 kts 235°
2026-05-05 12:17 60.44481 25.23209 1842 ft 129 kts 234°
2026-05-05 12:17 60.43872 25.21835 1664 ft 131 kts 233°
2026-05-05 12:17 60.43276 25.20505 1467 ft 124 kts 232°
2026-05-05 12:17 60.42692 25.19251 1266 ft 121 kts 232°
2026-05-05 12:18 60.42125 25.18000 1098 ft 119 kts 233°
2026-05-05 12:18 60.41577 25.16764 942 ft 114 kts 235°
2026-05-05 12:18 60.41071 25.15608 935 ft 109 kts 234°
2026-05-05 12:18 60.40563 25.14467 905 ft 109 kts 233°
2026-05-05 12:19 60.40044 25.13333 949 ft 110 kts 230°
2026-05-05 12:19 60.39526 25.12212 1055 ft 110 kts 232°
2026-05-05 12:19 60.39013 25.11072 1177 ft 109 kts 234°
2026-05-05 12:19 60.38500 25.09916 1298 ft 112 kts 234°
2026-05-05 12:20 60.37988 25.08746 1340 ft 113 kts 234°
2026-05-05 12:20 60.37465 25.07579 1355 ft 113 kts 233°
2026-05-05 12:20 60.36934 25.06432 1359 ft 111 kts 233°
2026-05-05 12:20 60.36415 25.05269 1273 ft 114 kts 232°
2026-05-05 12:21 60.35872 25.04105 1038 ft 112 kts 232°
2026-05-05 12:21 60.35344 25.02964 930 ft 113 kts 233°
2026-05-05 12:21 60.34797 25.01815 783 ft 113 kts 236°
2026-05-05 12:21 60.34282 25.00618 600 ft 113 kts 235°
2026-05-05 12:22 60.33749 24.99425 402 ft 115 kts 234°
2026-05-05 12:22 60.33217 24.98278 241 ft 110 kts 233°
2026-05-05 12:22 60.32727 24.97184 170 ft 95 kts 232°
2026-05-05 12:22 60.32369 24.96364 176 ft 65 kts 228°
2026-05-05 12:23 60.32144 24.95869 175 ft 27 kts 227°
2026-05-05 12:23 60.32091 24.95800 174 ft 5 kts 177°
2026-05-05 12:23 60.32047 24.95827 173 ft 9 kts 154°
2026-05-05 12:23 60.31999 24.95896 171 ft 0 kts 135°
2026-05-05 12:24 60.31997 24.95901 171 ft 3 kts 135°
2026-05-05 12:24 60.31988 24.95919 171 ft 2 kts 135°
2026-05-05 12:25 60.31954 24.95985 169 ft 12 kts 137°
2026-05-05 12:25 60.31921 24.96047 166 ft 11 kts 135°
2026-05-05 12:25 60.31940 24.96191 166 ft 9 kts 47°
2026-05-05 12:25 60.31971 24.96299 166 ft 4 kts 114°
2026-05-05 12:26 60.31938 24.96372 165 ft 6 kts 136°
2026-05-05 12:26 60.31932 24.96382 165 ft 0 kts 137°